TimeMST,TemperatureF,Dew PointF,Humidity,Sea Level PressureIn,VisibilityMPH,Wind Direction,Wind SpeedMPH,Gust SpeedMPH,PrecipitationIn,Events,Conditions,WindDirDegrees,DateUTC
12:58 AM,91.2,55.4,30,29.75,10.0,North,3.5,-,N/A,,Clear,10,2013-08-20 07:58:00
1:58 AM,89.4,56.3,32,29.75,10.0,NW,6.9,-,N/A,,Clear,320,2013-08-20 08:58:00
2:58 AM,89.6,54.9,31,29.75,10.0,North,2.3,-,N/A,,Clear,350,2013-08-20 09:58:00
3:58 AM,86.0,56.7,37,29.75,10.0,Calm,Calm,-,N/A,,Clear,0,2013-08-20 10:58:00
4:58 AM,84.7,55.6,37,29.76,10.0,West,3.5,-,N/A,,Clear,270,2013-08-20 11:58:00
5:58 AM,84.6,57.0,39,29.77,10.0,North,3.5,-,N/A,,Clear,360,2013-08-20 12:58:00
6:58 AM,86.5,55.0,34,29.81,10.0,NNE,1.2,-,N/A,,Partly Cloudy,20,2013-08-20 13:58:00
7:58 AM,91.4,54.7,29,29.81,10.0,NNE,5.8,-,N/A,,Partly Cloudy,30,2013-08-20 14:58:00
8:58 AM,94.5,56.3,28,29.82,10.0,NE,2.3,-,N/A,,Partly Cloudy,50,2013-08-20 15:58:00
9:58 AM,98.1,54.9,23,29.81,10.0,West,3.5,-,N/A,,Partly Cloudy,260,2013-08-20 16:58:00
10:58 AM,99.9,54.5,22,29.81,10.0,Variable,1.2,-,N/A,,Partly Cloudy,0,2013-08-20 17:58:00
11:58 AM,101.7,55.6,22,29.79,10.0,Variable,2.3,-,N/A,,Partly Cloudy,0,2013-08-20 18:58:00
12:58 PM,103.8,55.2,20,29.76,10.0,Variable,4.6,-,N/A,,Clear,0,2013-08-20 19:58:00
1:58 PM,106.3,54.3,18,29.73,10.0,SSW,8.1,-,N/A,,Partly Cloudy,210,2013-08-20 20:58:00
2:58 PM,107.1,54.3,17,29.70,10.0,SW,10.4,-,N/A,,Clear,220,2013-08-20 21:58:00
3:58 PM,108.9,52.3,15,29.67,10.0,SW,10.4,-,N/A,,Partly Cloudy,230,2013-08-20 22:58:00
4:58 PM,108.9,48.9,14,29.66,10.0,West,6.9,-,N/A,,Scattered Clouds,270,2013-08-20 23:58:00
5:58 PM,108.1,50.0,14,29.66,10.0,SSW,13.8,-,N/A,,Clear,200,2013-08-21 00:58:00
6:58 PM,106.9,48.9,14,29.67,10.0,SSW,13.8,-,N/A,,Clear,200,2013-08-21 01:58:00
7:58 PM,104.5,50.0,16,29.68,10.0,SW,8.1,-,N/A,,Scattered Clouds,220,2013-08-21 02:58:00
8:58 PM,100.9,55.9,22,29.72,10.0,South,17.3,-,N/A,,Scattered Clouds,190,2013-08-21 03:58:00
9:58 PM,96.6,58.1,28,29.75,10.0,SW,6.9,-,N/A,,Scattered Clouds,220,2013-08-21 04:58:00
10:51 PM,95.0,59.0,30,29.84,8.0,ESE,17.3,27.6,N/A,,Mostly Cloudy,110,2013-08-21 05:51:00
10:58 PM,94.3,58.1,30,29.79,10.0,East,16.1,23.0,N/A,,Scattered Clouds,100,2013-08-21 05:58:00
11:58 PM,93.0,58.6,31,29.82,10.0,ESE,11.5,-,N/A,,Mostly Cloudy,120,2013-08-21 06:58:00